Time,TemperatureF,DewpointF,PressureIn,WindDirection,WindDirectionDegrees,WindSpeedMPH,WindSpeedGustMPH,Humidity,HourlyPrecipIn,Conditions,Clouds,dailyrainin,SoftwareType,DateUTC
2013-02-05 00:01:00,28.0,10.0,-100.00,SE,145,4.0,15.0,46,-99.99,,,-99.99,,2013-02-05 07:01:00,
2013-02-05 00:11:00,28.0,10.0,-100.00,SE,145,4.0,15.0,46,-99.99,,,-99.99,,2013-02-05 07:11:00,
2013-02-05 00:22:00,28.0,10.0,-100.00,SE,145,4.0,21.0,46,-99.99,,,-99.99,,2013-02-05 07:22:00,
2013-02-05 00:32:00,28.0,10.0,-100.00,SE,145,4.0,21.0,46,-99.99,,,-99.99,,2013-02-05 07:32:00,
2013-02-05 00:41:00,28.0,10.0,-100.00,SSE,150,9.0,19.0,47,-99.99,,,-99.99,,2013-02-05 07:41:00,
2013-02-05 00:52:00,28.0,10.0,-100.00,SSE,150,9.0,19.0,47,-99.99,,,-99.99,,2013-02-05 07:52:00,
2013-02-05 01:01:00,27.0,10.0,-100.00,SSE,155,3.0,16.0,48,-99.99,,,-99.99,,2013-02-05 08:01:00,
2013-02-05 01:11:00,27.0,10.0,-100.00,SSE,155,3.0,16.0,48,-99.99,,,-99.99,,2013-02-05 08:11:00,
2013-02-05 01:21:00,27.0,10.0,-100.00,SSE,155,4.0,15.0,49,-99.99,,,-99.99,,2013-02-05 08:21:00,
2013-02-05 01:31:00,27.0,10.0,-100.00,SSE,155,4.0,15.0,49,-99.99,,,-99.99,,2013-02-05 08:31:00,
2013-02-05 01:41:00,27.0,11.0,-100.00,SSE,160,9.0,22.0,50,-99.99,,,-99.99,,2013-02-05 08:41:00,
2013-02-05 01:52:00,27.0,11.0,-100.00,SSE,160,9.0,22.0,50,-99.99,,,-99.99,,2013-02-05 08:52:00,
2013-02-05 02:02:00,26.0,12.0,-100.00,South,175,10.0,32.0,53,-99.99,,,-99.99,,2013-02-05 09:02:00,
2013-02-05 02:11:00,26.0,12.0,-100.00,South,175,10.0,32.0,53,-99.99,,,-99.99,,2013-02-05 09:11:00,
2013-02-05 02:21:00,26.0,12.0,-100.00,South,180,9.0,29.0,54,-99.99,,,-99.99,,2013-02-05 09:21:00,
2013-02-05 02:32:00,26.0,12.0,-100.00,South,180,9.0,29.0,54,-99.99,,,-99.99,,2013-02-05 09:32:00,
2013-02-05 02:42:00,26.0,13.0,-100.00,South,185,11.0,27.0,56,-99.99,,,-99.99,,2013-02-05 09:42:00,
2013-02-05 02:52:00,26.0,13.0,-100.00,South,185,11.0,27.0,56,-99.99,,,-99.99,,2013-02-05 09:52:00,
2013-02-05 03:02:00,26.0,13.0,-100.00,South,190,7.0,30.0,57,-99.99,,,-99.99,,2013-02-05 10:02:00,
2013-02-05 03:11:00,26.0,13.0,-100.00,South,190,7.0,30.0,57,-99.99,,,-99.99,,2013-02-05 10:11:00,
2013-02-05 03:21:00,25.0,12.0,-100.00,South,190,5.0,10.0,57,-99.99,,,-99.99,,2013-02-05 10:21:00,
2013-02-05 03:32:00,25.0,12.0,-100.00,South,190,5.0,10.0,57,-99.99,,,-99.99,,2013-02-05 10:32:00,
2013-02-05 03:42:00,25.0,13.0,-100.00,SSW,195,6.0,21.0,58,-99.99,,,-99.99,,2013-02-05 10:42:00,
2013-02-05 03:52:00,25.0,13.0,-100.00,SSW,195,6.0,21.0,58,-99.99,,,-99.99,,2013-02-05 10:52:00,
2013-02-05 04:01:00,27.0,13.0,-100.00,South,185,10.0,25.0,55,-99.99,,,-99.99,,2013-02-05 11:01:00,
2013-02-05 04:11:00,27.0,13.0,-100.00,South,185,10.0,25.0,55,-99.99,,,-99.99,,2013-02-05 11:11:00,
2013-02-05 04:22:00,26.0,12.0,-100.00,South,180,6.0,17.0,55,-99.99,,,-99.99,,2013-02-05 11:22:00,
2013-02-05 04:32:00,26.0,12.0,-100.00,South,180,6.0,17.0,55,-99.99,,,-99.99,,2013-02-05 11:32:00,
2013-02-05 04:42:00,27.0,12.0,-100.00,South,170,6.0,17.0,52,-99.99,,,-99.99,,2013-02-05 11:42:00,
2013-02-05 04:52:00,27.0,12.0,-100.00,South,170,6.0,17.0,52,-99.99,,,-99.99,,2013-02-05 11:52:00,
2013-02-05 05:01:00,28.0,12.0,-100.00,SSE,160,12.0,25.0,50,-99.99,,,-99.99,,2013-02-05 12:01:00,
2013-02-05 05:12:00,28.0,12.0,-100.00,SSE,160,12.0,25.0,50,-99.99,,,-99.99,,2013-02-05 12:12:00,
2013-02-05 05:21:00,28.0,12.0,-100.00,SSE,160,9.0,25.0,49,-99.99,,,-99.99,,2013-02-05 12:21:00,
2013-02-05 05:32:00,28.0,12.0,-100.00,SSE,160,9.0,25.0,49,-99.99,,,-99.99,,2013-02-05 12:32:00,
2013-02-05 05:42:00,27.0,11.0,-100.00,SSE,160,9.0,21.0,50,-99.99,,,-99.99,,2013-02-05 12:42:00,
2013-02-05 05:52:00,27.0,11.0,-100.00,SSE,160,9.0,21.0,50,-99.99,,,-99.99,,2013-02-05 12:52:00,
2013-02-05 06:01:00,27.0,11.0,-100.00,SSE,165,11.0,31.0,50,-99.99,,,-99.99,,2013-02-05 13:01:00,
2013-02-05 06:12:00,27.0,11.0,-100.00,SSE,165,11.0,31.0,50,-99.99,,,-99.99,,2013-02-05 13:12:00,
2013-02-05 06:21:00,28.0,12.0,-100.00,SSE,160,7.0,22.0,50,-99.99,,,-99.99,,2013-02-05 13:21:00,
2013-02-05 06:32:00,28.0,12.0,-100.00,SSE,160,7.0,22.0,50,-99.99,,,-99.99,,2013-02-05 13:32:00,
2013-02-05 06:42:00,28.0,12.0,-100.00,SSE,165,7.0,18.0,51,-99.99,,,-99.99,,2013-02-05 13:42:00,
2013-02-05 06:52:00,28.0,12.0,-100.00,SSE,165,7.0,18.0,51,-99.99,,,-99.99,,2013-02-05 13:52:00,
2013-02-05 07:01:00,28.0,13.0,-100.00,South,170,11.0,22.0,52,-99.99,,,-99.99,,2013-02-05 14:01:00,
2013-02-05 07:12:00,28.0,13.0,-100.00,South,170,11.0,22.0,52,-99.99,,,-99.99,,2013-02-05 14:12:00,
2013-02-05 07:21:00,28.0,12.0,-100.00,South,170,6.0,16.0,52,-99.99,,,-99.99,,2013-02-05 14:21:00,
2013-02-05 07:32:00,28.0,12.0,-100.00,South,170,6.0,16.0,52,-99.99,,,-99.99,,2013-02-05 14:32:00,
2013-02-05 07:42:00,28.0,13.0,-100.00,South,170,7.0,21.0,51,-99.99,,,-99.99,,2013-02-05 14:42:00,
2013-02-05 07:52:00,28.0,13.0,-100.00,South,170,7.0,21.0,51,-99.99,,,-99.99,,2013-02-05 14:52:00,
2013-02-05 08:02:00,30.0,14.0,-100.00,SSE,165,9.0,18.0,50,-99.99,,,-99.99,,2013-02-05 15:02:00,
2013-02-05 08:11:00,30.0,14.0,-100.00,SSE,165,9.0,18.0,50,-99.99,,,-99.99,,2013-02-05 15:11:00,
2013-02-05 08:21:00,31.0,15.0,-100.00,SSE,160,10.0,21.0,50,-99.99,,,-99.99,,2013-02-05 15:21:00,
2013-02-05 08:32:00,31.0,15.0,-100.00,SSE,160,10.0,21.0,50,-99.99,,,-99.99,,2013-02-05 15:32:00,
2013-02-05 08:41:00,31.0,15.0,-100.00,SSE,160,11.0,25.0,50,-99.99,,,-99.99,,2013-02-05 15:41:00,
2013-02-05 08:52:00,31.0,15.0,-100.00,SSE,160,11.0,25.0,50,-99.99,,,-99.99,,2013-02-05 15:52:00,
2013-02-05 09:01:00,31.0,15.0,-100.00,SSE,165,9.0,22.0,51,-99.99,,,-99.99,,2013-02-05 16:01:00,
2013-02-05 09:11:00,31.0,15.0,-100.00,SSE,165,9.0,22.0,51,-99.99,,,-99.99,,2013-02-05 16:11:00,
2013-02-05 09:22:00,32.0,16.0,-100.00,SSE,165,19.0,30.0,50,-99.99,,,-99.99,,2013-02-05 16:22:00,
2013-02-05 09:32:00,32.0,16.0,-100.00,SSE,165,19.0,30.0,50,-99.99,,,-99.99,,2013-02-05 16:32:00,
2013-02-05 09:42:00,32.0,16.0,-100.00,SSE,165,12.0,21.0,51,-99.99,,,-99.99,,2013-02-05 16:42:00,
2013-02-05 09:52:00,32.0,16.0,-100.00,SSE,165,12.0,21.0,51,-99.99,,,-99.99,,2013-02-05 16:52:00,
2013-02-05 10:01:00,32.0,16.0,-100.00,SSE,165,8.0,17.0,51,-99.99,,,-99.99,,2013-02-05 17:01:00,
2013-02-05 10:11:00,32.0,16.0,-100.00,SSE,165,8.0,17.0,51,-99.99,,,-99.99,,2013-02-05 17:11:00,
2013-02-05 10:21:00,31.0,16.0,-100.00,South,170,7.0,17.0,52,-99.99,,,-99.99,,2013-02-05 17:21:00,
2013-02-05 10:32:00,31.0,16.0,-100.00,South,170,7.0,17.0,52,-99.99,,,-99.99,,2013-02-05 17:32:00,
2013-02-05 10:42:00,31.0,16.0,-100.00,South,170,9.0,21.0,52,-99.99,,,-99.99,,2013-02-05 17:42:00,
2013-02-05 10:52:00,31.0,16.0,-100.00,South,170,9.0,21.0,52,-99.99,,,-99.99,,2013-02-05 17:52:00,
2013-02-05 11:02:00,32.0,17.0,-100.00,SSE,165,10.0,20.0,51,-99.99,,,-99.99,,2013-02-05 18:02:00,
2013-02-05 11:11:00,32.0,17.0,-100.00,SSE,165,10.0,20.0,51,-99.99,,,-99.99,,2013-02-05 18:11:00,
2013-02-05 11:21:00,33.0,17.0,-100.00,SSE,165,6.0,16.0,51,-99.99,,,-99.99,,2013-02-05 18:21:00,
2013-02-05 11:32:00,33.0,17.0,-100.00,SSE,165,6.0,16.0,51,-99.99,,,-99.99,,2013-02-05 18:32:00,
2013-02-05 11:42:00,34.0,18.0,-100.00,SSE,165,10.0,19.0,51,-99.99,,,-99.99,,2013-02-05 18:42:00,
2013-02-05 11:52:00,34.0,18.0,-100.00,SSE,165,10.0,19.0,51,-99.99,,,-99.99,,2013-02-05 18:52:00,
2013-02-05 12:02:00,34.0,18.0,-100.00,SSE,165,11.0,19.0,51,-99.99,,,-99.99,,2013-02-05 19:02:00,
2013-02-05 12:11:00,34.0,18.0,-100.00,SSE,165,11.0,19.0,51,-99.99,,,-99.99,,2013-02-05 19:11:00,
2013-02-05 12:21:00,35.0,19.0,-100.00,SSE,165,9.0,17.0,51,-99.99,,,-99.99,,2013-02-05 19:21:00,
2013-02-05 12:32:00,35.0,19.0,-100.00,SSE,165,9.0,17.0,51,-99.99,,,-99.99,,2013-02-05 19:32:00,
2013-02-05 12:42:00,34.0,18.0,-100.00,SSE,165,6.0,20.0,51,-99.99,,,-99.99,,2013-02-05 19:42:00,
2013-02-05 12:52:00,34.0,18.0,-100.00,SSE,165,6.0,20.0,51,-99.99,,,-99.99,,2013-02-05 19:52:00,
2013-02-05 13:01:00,35.0,19.0,-100.00,SSE,165,5.0,11.0,51,-99.99,,,-99.99,,2013-02-05 20:01:00,
2013-02-05 13:11:00,35.0,19.0,-100.00,SSE,165,5.0,11.0,51,-99.99,,,-99.99,,2013-02-05 20:11:00,
2013-02-05 13:21:00,35.0,19.0,-100.00,SSE,165,9.0,17.0,50,-99.99,,,-99.99,,2013-02-05 20:21:00,
2013-02-05 13:32:00,35.0,19.0,-100.00,SSE,165,9.0,17.0,50,-99.99,,,-99.99,,2013-02-05 20:32:00,
2013-02-05 13:42:00,36.0,19.0,-100.00,SSE,160,7.0,16.0,50,-99.99,,,-99.99,,2013-02-05 20:42:00,
2013-02-05 13:52:00,36.0,19.0,-100.00,SSE,160,7.0,16.0,50,-99.99,,,-99.99,,2013-02-05 20:52:00,
2013-02-05 14:02:00,37.0,20.0,-100.00,SSE,160,6.0,21.0,50,-99.99,,,-99.99,,2013-02-05 21:02:00,
2013-02-05 14:11:00,37.0,20.0,-100.00,SSE,160,6.0,21.0,50,-99.99,,,-99.99,,2013-02-05 21:11:00,
2013-02-05 14:21:00,38.0,21.0,-100.00,SSE,160,11.0,24.0,49,-99.99,,,-99.99,,2013-02-05 21:21:00,
2013-02-05 14:32:00,38.0,21.0,-100.00,SSE,160,11.0,24.0,49,-99.99,,,-99.99,,2013-02-05 21:32:00,
2013-02-05 14:42:00,40.0,22.0,-100.00,SSE,150,12.0,29.0,47,-99.99,,,-99.99,,2013-02-05 21:42:00,
2013-02-05 14:52:00,40.0,22.0,-100.00,SSE,150,12.0,29.0,47,-99.99,,,-99.99,,2013-02-05 21:52:00,
2013-02-05 15:01:00,40.0,21.0,-100.00,SSE,150,9.0,26.0,46,-99.99,,,-99.99,,2013-02-05 22:01:00,
2013-02-05 15:11:00,40.0,21.0,-100.00,SSE,150,9.0,26.0,46,-99.99,,,-99.99,,2013-02-05 22:11:00,
2013-02-05 15:21:00,38.0,20.0,-100.00,SSE,155,9.0,32.0,48,-99.99,,,-99.99,,2013-02-05 22:21:00,
2013-02-05 15:32:00,38.0,20.0,-100.00,SSE,155,9.0,32.0,48,-99.99,,,-99.99,,2013-02-05 22:32:00,
2013-02-05 15:42:00,38.0,20.0,-100.00,SSE,155,13.0,24.0,48,-99.99,,,-99.99,,2013-02-05 22:42:00,
2013-02-05 15:52:00,38.0,20.0,-100.00,SSE,155,13.0,24.0,48,-99.99,,,-99.99,,2013-02-05 22:52:00,
2013-02-05 16:02:00,38.0,21.0,-100.00,SSE,155,7.0,21.0,48,-99.99,,,-99.99,,2013-02-05 23:02:00,
2013-02-05 16:11:00,38.0,21.0,-100.00,SSE,155,7.0,21.0,48,-99.99,,,-99.99,,2013-02-05 23:11:00,
2013-02-05 16:21:00,39.0,21.0,-100.00,SSE,155,12.0,25.0,48,-99.99,,,-99.99,,2013-02-05 23:21:00,
2013-02-05 16:32:00,39.0,21.0,-100.00,SSE,155,12.0,25.0,48,-99.99,,,-99.99,,2013-02-05 23:32:00,
2013-02-05 16:42:00,39.0,21.0,-100.00,SSE,150,9.0,26.0,47,-99.99,,,-99.99,,2013-02-05 23:42:00,
2013-02-05 16:52:00,39.0,21.0,-100.00,SSE,150,9.0,26.0,47,-99.99,,,-99.99,,2013-02-05 23:52:00,
2013-02-05 17:02:00,38.0,20.0,-100.00,SSE,150,7.0,22.0,48,-99.99,,,-99.99,,2013-02-06 00:02:00,
2013-02-05 17:11:00,38.0,20.0,-100.00,SSE,150,7.0,22.0,48,-99.99,,,-99.99,,2013-02-06 00:11:00,
2013-02-05 17:21:00,38.0,20.0,-100.00,SSE,155,11.0,21.0,48,-99.99,,,-99.99,,2013-02-06 00:21:00,
2013-02-05 17:32:00,38.0,20.0,-100.00,SSE,155,11.0,21.0,48,-99.99,,,-99.99,,2013-02-06 00:32:00,
2013-02-05 17:42:00,38.0,20.0,-100.00,SSE,150,9.0,21.0,47,-99.99,,,-99.99,,2013-02-06 00:42:00,
2013-02-05 17:52:00,38.0,20.0,-100.00,SSE,150,9.0,21.0,47,-99.99,,,-99.99,,2013-02-06 00:52:00,
2013-02-05 18:02:00,37.0,19.0,-100.00,SSE,155,10.0,20.0,48,-99.99,,,-99.99,,2013-02-06 01:02:00,
2013-02-05 18:11:00,37.0,19.0,-100.00,SSE,155,10.0,20.0,48,-99.99,,,-99.99,,2013-02-06 01:11:00,
2013-02-05 18:21:00,37.0,19.0,-100.00,SSE,155,10.0,-999.0,48,-99.99,,,-99.99,,2013-02-06 01:21:00,
2013-02-05 18:32:00,37.0,19.0,-100.00,SSE,155,10.0,-999.0,48,-99.99,,,-99.99,,2013-02-06 01:32:00,
2013-02-05 18:42:00,36.0,19.0,-100.00,SSE,155,8.0,15.0,48,-99.99,,,-99.99,,2013-02-06 01:42:00,
2013-02-05 18:53:00,36.0,19.0,-100.00,SSE,155,8.0,15.0,48,-99.99,,,-99.99,,2013-02-06 01:53:00,
2013-02-05 19:01:00,36.0,19.0,-100.00,SSE,155,6.0,11.0,48,-99.99,,,-99.99,,2013-02-06 02:01:00,
2013-02-05 19:11:00,36.0,19.0,-100.00,SSE,155,6.0,11.0,48,-99.99,,,-99.99,,2013-02-06 02:11:00,
2013-02-05 19:22:00,34.0,18.0,-100.00,SSE,160,6.0,9.0,50,-99.99,,,-99.99,,2013-02-06 02:22:00,
2013-02-05 19:32:00,34.0,18.0,-100.00,SSE,160,6.0,9.0,50,-99.99,,,-99.99,,2013-02-06 02:32:00,
2013-02-05 19:42:00,36.0,19.0,-100.00,SSE,160,6.0,-999.0,50,-99.99,,,-99.99,,2013-02-06 02:42:00,
2013-02-05 19:52:00,36.0,19.0,-100.00,SSE,160,6.0,-999.0,50,-99.99,,,-99.99,,2013-02-06 02:52:00,
2013-02-05 20:02:00,36.0,19.0,-100.00,SSE,160,6.0,-999.0,50,-99.99,,,-99.99,,2013-02-06 03:02:00,
2013-02-05 20:12:00,36.0,19.0,-100.00,SSE,160,6.0,-999.0,50,-99.99,,,-99.99,,2013-02-06 03:12:00,
2013-02-05 20:22:00,34.0,18.0,-100.00,SSE,165,9.0,17.0,51,-99.99,,,-99.99,,2013-02-06 03:22:00,
2013-02-05 20:33:00,34.0,18.0,-100.00,SSE,165,9.0,17.0,51,-99.99,,,-99.99,,2013-02-06 03:33:00,
2013-02-05 20:42:00,35.0,19.0,-100.00,SSE,165,6.0,-999.0,51,-99.99,,,-99.99,,2013-02-06 03:42:00,
2013-02-05 20:53:00,35.0,19.0,-100.00,SSE,165,6.0,-999.0,51,-99.99,,,-99.99,,2013-02-06 03:53:00,
2013-02-05 21:02:00,35.0,19.0,-100.00,North,-999,-999.0,-999.0,50,-99.99,,,-99.99,,2013-02-06 04:02:00,
2013-02-05 21:11:00,35.0,19.0,-100.00,North,-999,-999.0,-999.0,50,-99.99,,,-99.99,,2013-02-06 04:11:00,
2013-02-05 21:21:00,35.0,19.0,-100.00,SSE,160,9.0,-999.0,50,-99.99,,,-99.99,,2013-02-06 04:21:00,
2013-02-05 21:32:00,35.0,19.0,-100.00,SSE,160,9.0,-999.0,50,-99.99,,,-99.99,,2013-02-06 04:32:00,
2013-02-05 21:42:00,35.0,18.0,-100.00,SSE,165,9.0,19.0,50,-99.99,,,-99.99,,2013-02-06 04:42:00,
2013-02-05 21:52:00,35.0,18.0,-100.00,SSE,165,9.0,19.0,50,-99.99,,,-99.99,,2013-02-06 04:52:00,
2013-02-05 22:02:00,33.0,18.0,-100.00,South,170,8.0,19.0,52,-99.99,,,-99.99,,2013-02-06 05:02:00,
2013-02-05 22:12:00,33.0,18.0,-100.00,South,170,8.0,19.0,52,-99.99,,,-99.99,,2013-02-06 05:12:00,
2013-02-05 22:22:00,33.0,18.0,-100.00,South,170,6.0,-999.0,52,-99.99,,,-99.99,,2013-02-06 05:22:00,
2013-02-05 22:32:00,33.0,18.0,-100.00,South,170,6.0,-999.0,52,-99.99,,,-99.99,,2013-02-06 05:32:00,
2013-02-05 22:41:00,33.0,18.0,-100.00,South,170,4.0,-999.0,52,-99.99,,,-99.99,,2013-02-06 05:41:00,
2013-02-05 22:53:00,33.0,18.0,-100.00,South,170,4.0,-999.0,52,-99.99,,,-99.99,,2013-02-06 05:53:00,
2013-02-05 23:01:00,33.0,18.0,-100.00,South,170,4.0,9.0,52,-99.99,,,-99.99,,2013-02-06 06:01:00,
2013-02-05 23:11:00,33.0,18.0,-100.00,South,170,4.0,9.0,52,-99.99,,,-99.99,,2013-02-06 06:11:00,
2013-02-05 23:21:00,33.0,18.0,-100.00,South,175,6.0,-999.0,53,-99.99,,,-99.99,,2013-02-06 06:21:00,
2013-02-05 23:32:00,33.0,18.0,-100.00,South,175,6.0,-999.0,53,-99.99,,,-99.99,,2013-02-06 06:32:00,
2013-02-05 23:42:00,33.0,18.0,-100.00,North,-999,-999.0,-999.0,52,-99.99,,,-99.99,,2013-02-06 06:42:00,
2013-02-05 23:52:00,33.0,18.0,-100.00,North,-999,-999.0,-999.0,52,-99.99,,,-99.99,,2013-02-06 06:52:00,